Location: Lauenf�rde
(51.6667°N, 10.3833°E)
Time: 08:24:47
(UTC+00:00)

Daily predictions for brighter satellites

Satellite Brightness Start Highest point End
(mag) Time Altitude Azimuth Time Altitude Azimuth Time Altitude Azimuth
Meteor 1-22 Rocket 4.4 18:13:36 10° SSE 18:18:35 44° E 18:23:35 10° NNE
STARLINK-1100 3.9 18:15:32 10° WNW 18:19:32 61° SSW 18:23:31 10° SE
Resurs 01 Rocket 3.2 18:16:36 10° ESE 18:19:43 19° ENE 18:22:50 10° NNE
STARLINK-1084 3.7 18:15:47 10° WNW 18:19:57 78° N 18:24:06 10° E
Cosmos 371 Rocket 4.2 18:15:37 10° NNW 18:20:19 52° WSW 18:24:59 10° S
Cosmos 1939 Rocket 4.3 18:16:35 10° S 18:20:21 41° W 18:24:06 10° NNW
STARLINK-1187 3.8 18:17:54 10° SSW 18:20:43 30° SSE 18:23:32 10° E
STARLINK-1188 4.0 18:18:04 10° SSW 18:20:47 27° SSE 18:23:31 10° E
STARLINK-1198 4.0 18:18:19 10° SSW 18:21:02 28° SSE 18:23:45 10° E
STARLINK-1235 3.7 18:18:30 10° SW 18:21:23 33° SSE 18:24:16 10° E
USA 81 4.0 18:16:06 10° N 18:21:24 73° E 18:26:40 10° SSE
STARLINK-1199 3.9 18:19:58 10° SSW 18:22:43 28° SSE 18:25:30 10° E
Cosmos 494 Rocket 4.2 18:17:53 10° S 18:22:46 46° ESE 18:27:44 10° NE
STARLINK-1191 3.9 18:20:26 10° SSW 18:23:11 29° SSE 18:25:58 10° E
CZ-4C R/B 3.5 18:18:00 10° W 18:23:13 43° NNW 18:29:29 10° NE
STARLINK-1210 3.9 18:20:51 10° SSW 18:23:37 29° SSE 18:26:24 10° E
Cosmos 1733 3.5 18:20:11 10° SSE 18:23:45 42° E 18:27:21 10° NNE
STARLINK-1221 3.9 18:21:19 10° SSW 18:24:05 29° SSE 18:26:54 10° E
STARLINK-1083 4.0 18:20:08 10° WNW 18:24:08 58° SSW 18:28:05 10° SE
Cosmos 1709 Rocket 4.2 18:18:05 10° N 18:24:11 53° ENE 18:30:12 10° SSE
STARLINK-1219 3.9 18:21:45 10° SSW 18:24:31 29° SSE 18:27:20 10° E
STARLINK-67 2.9 18:22:21 10° SW 18:24:49 40° SSE 18:27:17 10° E
STARLINK-1098 3.7 18:20:45 10° WNW 18:24:54 79° N 18:29:04 10° E
STARLINK-1222 3.9 18:22:11 10° SSW 18:24:58 29° SSE 18:27:46 10° E
STARLINK-1211 3.9 18:22:38 10° SSW 18:25:26 30° SSE 18:28:13 10° E
Cosmos 1331 Rocket 4.0 18:20:31 10° NNW 18:25:44 88° ENE 18:30:54 10° SSE
STARLINK-1214 3.9 18:23:05 10° SSW 18:25:53 30° SSE 18:28:41 10° E
FREGAT/IRIS 2.6 18:23:27 10° SSE 18:26:05 47° ENE 18:28:44 10° N
STARLINK-1245 3.8 18:23:34 10° SSW 18:26:21 30° SSE 18:29:08 10° E
STARLINK-1238 3.8 18:23:59 10° SSW 18:26:47 30° SSE 18:29:36 10° E
Cosmos 1674 3.1 18:23:13 10° NNW 18:26:59 66° W 18:30:41 10° S
SPOT 3 Rocket 4.1 18:22:15 10° SE 18:27:05 40° ENE 18:31:56 10° N
STARLINK-1205 3.8 18:24:55 10° SSW 18:27:42 30° SSE 18:30:30 10° E
STARLINK-1204 3.8 18:25:20 10° SSW 18:28:07 31° SSE 18:30:56 10° E
STARLINK-1125 4.0 18:24:46 10° WNW 18:28:44 55° SSW 18:32:41 10° SE
SL-14 R/B 3.5 18:24:48 10° N 18:28:47 51° ENE 18:32:43 10° SSE
Cosmos 2219 Rocket 3.2 18:24:17 10° SW 18:29:48 51° NW 18:35:19 10° NNE
STARLINK-1123 3.7 18:25:46 10° WNW 18:29:56 81° NNE 18:34:04 10° E
KORONAS-FOTON 4.2 18:26:16 10° NNW 18:30:06 67° W 18:33:53 10° S
STARLINK-1109 4.1 18:29:03 10° WNW 18:33:01 53° SSW 18:36:57 10° SE
STARLINK-1097 3.6 18:30:44 10° WNW 18:34:54 83° NNE 18:38:50 11° E
STARLINK-1246 4.5 18:31:26 10° SSW 18:34:59 30° SE 18:38:34 10° E
Cosmos 1943 Rocket 2.7 18:30:57 10° NNW 18:36:11 41° NE 18:41:19 11° ESE
STARLINK-1091 4.2 18:33:44 10° WNW 18:37:40 50° SSW 18:41:35 10° SE
MONITOR-E 3.7 18:35:34 10° SSE 18:38:11 65° ENE 18:40:50 10° N
Cosmos 1980 3.8 18:33:33 10° SSW 18:39:15 90° WNW 18:44:59 10° NNE
Cosmos 1766 3.3 18:35:27 10° S 18:39:26 89° E 18:43:27 10° N
STARLINK-1099 3.6 18:35:43 10° WNW 18:39:53 85° NNE 18:43:38 13° ESE
S3M 4.1 18:35:03 10° S 18:41:26 87° E 18:47:53 10° N
Ariane Rocket 3.2 18:37:49 10° SSE 18:42:53 78° WSW 18:48:00 10° NNW
Cosmos 2084 3.9 18:39:00 10° SW 18:43:28 71° NW 18:47:58 10° NE
STARLINK-1224 4.3 18:40:15 10° SSW 18:43:53 33° SE 18:47:23 11° E
STARLINK-1104 3.6 18:40:43 10° WNW 18:44:53 87° NNE 18:48:25 14° ESE
Cosmos 1455 Rocket 3.0 18:42:05 10° S 18:46:24 73° E 18:50:46 10° NNE
TSX-5 4.4 18:41:20 10° NNW 18:47:11 73° NE 18:51:27 11° SE
STARLINK-1225 4.2 18:44:52 10° SSW 18:48:34 35° SE 18:51:55 12° E
STARLINK-1144 3.6 18:45:40 10° WNW 18:49:50 89° N 18:53:11 15° ESE
Cosmos 1892 Rocket 4.4 18:45:41 10° NNW 18:50:05 55° W 18:54:27 10° S
STARLINK-1203 4.1 18:46:48 10° SW 18:50:28 38° SSE 18:53:42 13° E
STARLINK-1072 4.4 18:46:58 10° WNW 18:50:45 42° SSW 18:54:14 12° SE
Cosmos 1626 Rocket 3.6 18:47:21 10° N 18:51:45 61° ENE 18:56:04 10° SSE
SL-16 R/B 2.4 18:47:22 10° S 18:52:45 47° ESE 18:58:10 10° NE
STARLINK-1230 4.1 18:49:27 10° SW 18:53:10 37° SSE 18:56:22 13° E
Cosmos 2333 Rocket 3.8 18:48:07 10° WSW 18:53:23 37° NW 18:58:38 10° NNE
Cosmos 1626 2.1 18:50:59 10° N 18:54:42 90° W 18:58:25 10° S
STARLINK-1103 3.6 18:50:39 10° WNW 18:54:48 88° SSW 18:57:58 17° ESE
STARLINK-1096 4.5 18:51:26 10° WNW 18:55:12 40° SSW 18:58:31 13° SE
USA 186 2.2 18:51:53 10° S 18:55:19 70° W 18:58:42 10° NNW
Cosmos 2084 Rocket 3.8 18:51:01 10° NW 18:55:25 56° NE 18:58:47 17° ESE
Cosmos 1437 4.4 18:53:45 10° NNE 18:55:45 16° ENE 18:56:21 15° E
STARLINK-1234 2.9 18:53:22 10° SW 18:56:19 55° SSE 18:58:25 17° E
Cosmos 1953 3.5 18:53:53 13° SE 18:56:26 23° E 18:59:37 10° NE
STARLINK-1243 4.0 18:54:04 10° SW 18:57:51 40° SSE 19:00:53 15° E
Okean 1-7 Rocket 4.4 18:53:41 10° NNW 18:57:59 53° W 19:02:15 10° S
NOSS 2-1 (E) 3.8 18:55:46 10° WSW 18:59:09 57° NW 19:03:08 10° NE
Cosmos 1602 Rocket 3.7 18:54:52 10° N 18:59:18 57° ENE 19:03:40 10° SSE
STARLINK-1101 3.6 18:55:39 10° WNW 18:59:48 85° SSW 19:02:46 19° ESE
Aureole 3 4.3 18:57:52 10° SSE 19:01:36 35° E 19:06:16 10° NNE
STARLINK-1236 4.0 18:58:40 10° SW 19:02:29 42° SSE 19:05:22 16° E
ATLAS 2AS CENTAUR R/B 3.7 18:56:48 10° NW 19:04:15 44° NNE 19:10:15 14° E
STARLINK-1102 3.6 19:00:37 10° WNW 19:04:47 83° SSW 19:07:32 20° ESE
H-2A R/B 2.6 19:02:02 10° S 19:07:17 61° WSW 19:12:26 10° NNW
Aureole 2 Rocket 3.1 19:05:41 10° N 19:08:58 37° ENE 19:10:30 24° ESE
STARLINK-1111 3.6 19:05:36 10° WNW 19:09:45 80° SSW 19:12:19 22° ESE
STARLINK-1269 3.8 19:07:58 10° SW 19:11:52 47° SSE 19:14:26 19° E
Terra 3.9 19:10:44 11° ENE 19:12:23 13° NE 19:14:23 10° NNE
ERBS 3.0 19:10:28 10° W 19:13:48 54° NNW 19:16:57 11° ENE
Cosmos 1544 Rocket 3.7 19:09:27 10° SSW 19:13:51 81° WNW 19:18:19 10° N
USA 234 3.4 19:07:32 10° ENE 19:13:52 50° SE 19:20:12 10° SW
Cosmos 2297 4.3 19:08:50 10° NW 19:14:24 58° WSW 19:19:58 10° S
CZ-2C R/B 3.8 19:09:43 10° NNE 19:14:28 60° ESE 19:19:08 10° S
STARLINK-1073 3.6 19:10:35 10° WNW 19:14:44 76° SSW 19:17:06 25° ESE
STARLINK-1200 3.7 19:12:37 10° SW 19:16:32 50° SSE 19:18:56 21° E
Cosmos 1703 4.4 19:13:27 10° NNE 19:16:47 25° ENE 19:17:47 23° E
Cosmos 1825 Rocket 4.2 19:14:28 10° N 19:18:39 38° ENE 19:20:41 24° ESE
STARLINK-1121 3.6 19:15:34 10° WNW 19:19:42 73° SSW 19:21:53 27° ESE
STARLINK-1192 3.7 19:17:14 10° SW 19:21:10 53° SSE 19:23:25 23° E
Cosmos 2237 Rocket 3.1 19:17:36 10° SW 19:23:05 52° NW 19:28:37 10° NNE
COSMOS 2455 4.3 19:18:53 10° NNW 19:23:54 26° NNE 19:28:01 14° ENE
STARLINK-1106 3.7 19:20:32 10° WNW 19:24:40 70° SSW 19:26:39 29° SE
STARLINK-1244 3.6 19:21:59 10° SW 19:25:57 56° SSE 19:28:01 26° E
STARLINK-1201 2.9 19:23:01 10° WSW 19:26:15 70° SSE 19:27:31 34° E
CZ-2C R/B 2.7 19:21:26 10° NNE 19:26:28 48° E 19:31:28 10° S
Cosmos 1992 Rocket 4.0 19:22:08 10° NNW 19:27:22 68° ENE 19:30:33 24° SE
Cosmos 2184 Rocket 4.1 19:21:06 10° N 19:27:24 62° ENE 19:32:14 17° SSE
Cosmos 1758 Rocket 3.7 19:23:40 10° N 19:27:59 53° ENE 19:30:09 27° SE
STARLINK-1112 3.7 19:25:32 10° WNW 19:29:39 67° SSW 19:31:27 32° SE
Cosmos 1269 Rocket 4.2 19:24:55 10° SSW 19:30:12 76° WNW 19:35:33 10° NNE
STARLINK-1138 3.6 19:26:39 10° SW 19:30:38 59° SSE 19:32:32 28° E
STARLINK-1209 2.5 19:28:39 10° WSW 19:31:34 86° SSE 19:32:14 49° ENE
NOSS 2-2 (C) 4.5 19:26:58 10° NW 19:32:24 88° SW 19:37:14 23° SE
STARLINK-1228 2.5 19:29:39 10° WSW 19:32:31 87° SSE 19:33:08 51° ENE
Cosmos 1953 Rocket 4.2 19:30:05 10° N 19:34:15 38° ENE 19:35:32 31° ESE
STARLINK-1128 3.7 19:30:32 10° WNW 19:34:38 64° SSW 19:36:15 34° SE
STARLINK-1143 3.5 19:31:25 10° SW 19:35:24 61° SSE 19:37:08 31° E
ARGOS 4.3 19:30:21 10° S 19:35:30 44° W 19:40:40 10° NNW
SL-8 R/B 3.8 19:31:21 10° W 19:36:02 58° S 19:38:02 32° ESE
SL-24 R/B 4.1 19:31:35 10° NNE 19:36:26 86° ESE 19:40:36 10° SSW
Cosmos 2251 Rocket 3.9 19:32:01 10° S 19:37:03 43° ESE 19:42:07 10° NE
Cosmos 1656 Rocket 4.2 19:33:11 10° NNW 19:38:40 46° NE 19:41:14 28° ESE
STARLINK-1113 3.8 19:35:31 10° WNW 19:39:37 61° SSW 19:41:02 37° SE
Cosmos 1470 3.2 19:38:54 10° SSW 19:42:43 60° WNW 19:46:36 10° N
Cosmos 1606 Rocket 4.0 19:43:16 36° ESE 19:43:55 39° E 19:48:03 10° NNE
STARLINK-1119 3.9 19:40:29 10° WNW 19:44:34 57° SSW 19:45:48 39° SSE
STARLINK-1241 3.4 19:41:50 10° WSW 19:45:49 68° SSE 19:47:06 40° E
STARLINK-1233 2.7 19:42:51 10° WSW 19:46:00 86° SSE 19:46:21 68° E
STARLINK-1212 2.7 19:43:18 10° WSW 19:46:27 87° SSE 19:46:46 70° E
STARLINK-1105 2.7 19:43:45 10° WSW 19:46:54 87° SSE 19:47:13 70° E
Cosmos 2315 Rocket 4.4 19:40:50 10° SSW 19:47:06 66° WNW 19:53:28 10° N
STARLINK-1206 2.7 19:44:15 10° WSW 19:47:22 87° SSE 19:47:38 73° E
STARLINK-1247 2.7 19:44:41 10° WSW 19:47:49 88° S 19:48:03 74° E
ISS -3.6 19:44:34 10° W 19:47:52 57° SSW 19:48:11 54° S
STARLINK-1227 2.7 19:45:06 10° WSW 19:48:15 88° SSE 19:48:30 73° E
Cosmos 2154 Rocket 4.1 19:42:00 10° N 19:48:18 58° ENE 19:51:33 29° SE
Resurs 1-3 4.2 19:44:43 14° S 19:48:26 56° W 19:52:47 10° NNW
ATLAS CENTAUR R/B 4.1 19:46:08 10° NW 19:48:30 14° N 19:50:47 10° NNE
STARLINK-1218 2.7 19:45:35 10° WSW 19:48:43 88° SSE 19:48:55 76° E
STARLINK-1226 2.7 19:46:03 10° WSW 19:49:11 88° SSE 19:49:23 77° E
STARLINK-1114 3.9 19:45:29 10° WNW 19:49:33 54° SSW 19:50:36 41° SSE
STARLINK-1254 2.7 19:46:27 10° WSW 19:49:36 89° SSE 19:49:48 77° E
STARLINK-1215 2.7 19:46:57 10° WSW 19:50:04 89° SSW 19:50:14 80° E
ERS-1 Rocket 3.7 19:48:48 30° E 19:50:05 35° ENE 19:54:39 10° N
STARLINK-1239 3.4 19:46:24 10° WSW 19:50:24 71° SSE 19:51:30 45° E
STARLINK-1231 2.7 19:47:23 10° WSW 19:50:31 89° SSE 19:50:39 81° ENE
Cosmos 1758 4.0 19:46:38 10° SSW 19:50:39 56° WNW 19:54:44 10° N
STARLINK-1232 2.7 19:48:17 10° WSW 19:51:26 89° ENE 19:51:31 83° ENE
STARLINK-1217 2.7 19:48:45 10° WSW 19:51:52 90° NNW 19:51:58 84° ENE
USA 245 4.2 19:50:07 35° SE 19:52:11 60° ENE 19:57:59 10° N
STARLINK-1208 2.7 19:49:10 10° WSW 19:52:18 89° NW 19:52:25 83° ENE
BREEZE-M DEB (TANK) 3.5 19:46:44 10° W 19:52:38 53° SSW 19:53:10 47° SSE
STARLINK-1229 2.7 19:49:39 10° WSW 19:52:46 89° NNW 19:52:49 87° ENE
STARLINK-1271 2.7 19:50:06 10° WSW 19:53:14 89° N 19:53:16 87° NE
STARLINK-1270 2.7 19:50:34 10° WSW 19:53:41 88° NNW 19:53:42 88° NNE
STARLINK-1154 2.7 19:51:00 10° WSW 19:54:07 88° N 19:54:07 88° N
STARLINK-1130 (DARKSAT) 4.0 19:50:27 10° WNW 19:54:29 51° SSW 19:55:22 42° SSE
Cosmos 2369 Rocket 2.2 19:49:11 10° NNW 19:54:55 82° WSW 19:57:50 30° SSE
STARLINK-1240 3.4 19:50:59 10° WSW 19:55:00 74° SSE 19:55:56 50° E
STARLINK-1197 2.8 19:51:54 10° WSW 19:54:59 86° WNW 19:54:59 86° WNW
STARLINK-1189 2.8 19:52:21 10° WSW 19:55:26 86° WNW 19:55:26 86° WNW
Resurs 01 Rocket 1.9 19:53:05 23° S 19:55:47 66° WSW 20:00:11 10° NNW
STARLINK-1187 2.8 19:53:12 10° WSW 19:56:21 83° N 19:56:21 83° N
STARLINK-1188 2.8 19:53:15 10° WSW 19:56:17 83° WNW 19:56:17 83° WNW
SPOT 5 3.6 19:56:05 29° ENE 19:56:27 30° ENE 20:00:15 10° N
STARLINK-1198 2.8 19:53:29 10° WSW 19:56:30 82° WNW 19:56:30 82° WNW
STARLINK-1235 2.8 19:53:53 10° W 19:57:03 79° NNW 19:57:05 79° N
STARLINK-1199 2.9 19:55:11 10° WSW 19:58:13 81° WNW 19:58:13 81° WNW
Cosmos 2263 4.1 19:52:58 10° NNW 19:58:39 83° ENE 20:00:59 37° SE
STARLINK-67 3.6 19:56:10 10° W 19:58:04 42° WNW 19:58:04 42° WNW
STARLINK-1191 2.9 19:55:39 10° WSW 19:58:39 79° WNW 19:58:39 79° WNW
STARLINK-1210 2.9 19:56:05 10° WSW 19:59:04 79° WNW 19:59:04 79° WNW
STARLINK-1084 4.0 19:55:26 10° WNW 19:59:27 48° SSW 20:00:09 43° S
STARLINK-1216 3.4 19:55:36 10° WSW 19:59:37 77° SSE 20:00:23 56° E
STARLINK-1221 2.9 19:56:33 10° WSW 19:59:32 78° WNW 19:59:32 78° WNW
STARLINK-1219 2.9 19:57:00 10° WSW 19:59:58 77° W 19:59:58 77° W
STARLINK-1222 2.9 19:57:26 10° WSW 20:00:23 75° W 20:00:23 75° W
STARLINK-1211 3.0 19:57:54 10° WSW 20:00:48 74° W 20:00:48 74° W
STARLINK-1214 3.0 19:58:21 10° WSW 20:01:15 73° W 20:01:15 73° W
Cosmos 1908 4.2 20:02:47 33° NE 20:02:47 33° NE 20:05:24 10° NNE
STARLINK-1245 3.0 19:58:51 10° WSW 20:01:40 70° W 20:01:40 70° W
STARLINK-1238 3.0 19:59:16 10° WSW 20:02:07 71° W 20:02:07 71° W
STARLINK-1205 3.1 20:00:13 10° WSW 20:02:59 66° W 20:02:59 66° W
STARLINK-1204 3.1 20:00:38 10° WSW 20:03:23 66° W 20:03:23 66° W
STARLINK-1237 3.4 20:00:15 10° WSW 20:04:17 80° SSE 20:04:52 62° E
STARLINK-1098 4.1 20:00:25 10° WNW 20:04:23 46° SSW 20:04:55 43° S
Cosmos 1726 2.0 20:06:30 60° S 20:07:07 89° ESE 20:10:54 10° N
Landsat 7 3.8 20:06:34 49° SE 20:07:39 64° ENE 20:12:24 10° N
STARLINK-1202 3.4 20:04:52 10° WSW 20:08:54 83° SSE 20:09:18 70° E
STARLINK-1123 4.2 20:05:26 10° WNW 20:09:22 43° SSW 20:09:44 42° SSW
Cosmos 921 Rocket 4.1 20:05:46 10° N 20:09:20 28° NE 20:09:20 28° NE
Nadezhda 1 Rocket 4.0 20:06:17 26° S 20:10:04 66° E 20:16:24 10° NNE
Cosmos 2228 2.9 20:11:03 63° ESE 20:11:20 66° E 20:15:37 10° NNE
MOS 1 Rocket 3.7 20:06:19 10° N 20:11:29 74° WNW 20:16:50 10° SSW
SAR-Lupe-2 3.5 20:08:56 10° NNE 20:12:21 79° NE 20:12:21 79° NE
CZ-4C R/B 4.2 20:08:06 10° WNW 20:13:21 29° N 20:19:29 10° ENE
STARLINK-1246 3.4 20:09:58 10° WSW 20:14:02 86° SSE 20:14:18 77° E
STARLINK-1097 4.3 20:10:24 10° WNW 20:14:18 41° SSW 20:14:29 40° SSW
STARLINK-1099 4.4 20:15:25 10° WNW 20:19:16 38° SSW 20:19:16 38° SSW
Cosmos 1943 Rocket 3.0 20:14:47 10° NW 20:19:59 43° WSW 20:22:51 24° SSW
Cosmos 1943 3.3 20:19:28 49° SE 20:20:10 52° ESE 20:25:42 10° NE
Cosmos 1340 Rocket 4.5 20:22:11 23° NE 20:22:11 23° NE 20:24:03 10° NNE
Cosmos 2074 Rocket 4.5 20:15:59 10° NNW 20:22:07 59° W 20:26:45 18° SSW
STARLINK-1224 3.5 20:18:50 10° WSW 20:22:45 84° W 20:22:45 84° W
NOSS 3-4 (A) 3.8 20:16:21 10° NW 20:23:09 71° NE 20:25:57 40° ESE
NOSS 3-4 (C) 3.8 20:16:27 10° NW 20:23:15 70° NE 20:26:03 40° ESE
Cosmos 2058 Rocket 3.6 20:24:10 44° ENE 20:24:10 44° ENE 20:27:45 10° NNE
Cosmos 1328 4.0 20:22:25 10° NNW 20:26:25 66° W 20:26:45 63° SW
STARLINK-1225 3.6 20:23:32 10° WSW 20:27:17 76° W 20:27:17 76° W
Cosmos 1437 4.3 20:26:06 10° NNW 20:28:32 31° W 20:28:32 31° W
STARLINK-1203 3.7 20:25:13 10° WSW 20:28:44 69° W 20:28:44 69° W
STARLINK-1230 3.7 20:28:11 10° WSW 20:31:44 67° W 20:31:44 67° W
Cosmos 1953 3.7 20:29:29 13° SW 20:32:39 36° WNW 20:36:23 10° N
SPOT 1/Viking Rocket 3.5 20:32:06 58° SSE 20:33:10 89° WSW 20:38:27 10° NNW
Meteor 2-10 4.5 20:28:33 13° SSW 20:33:22 65° WNW 20:38:55 10° N
NOSS 3-3 (A) 3.8 20:28:38 10° SSW 20:34:29 65° SE 20:41:09 10° NE
NOSS 3-3 (C) 3.8 20:28:45 10° SSW 20:34:36 65° SE 20:41:15 10° NE
Spot 2 Rocket 3.9 20:33:07 39° SSW 20:34:51 59° WSW 20:39:56 10° NNW
STARLINK-1243 3.9 20:32:53 10° W 20:36:16 60° W 20:36:16 60° W
SL-16 R/B 3.5 20:31:41 10° WSW 20:37:00 40° NW 20:42:20 10° NNE
STARLINK-1236 4.1 20:37:33 10° W 20:40:46 54° W 20:40:46 54° W
IGS 5A 3.7 20:42:15 64° W 20:42:15 64° W 20:46:23 10° NNW
Terra 2.0 20:49:37 63° NE 20:49:37 63° NE 20:54:00 10° N
CARTOSAT-1 3.7 20:50:52 69° NNW 20:50:52 69° NNW 20:54:42 10° NNW
ERBS 4.2 20:47:30 10° WNW 20:49:56 29° NNW 20:49:56 29° NNW
Cosmos 2341 Rocket 3.9 20:46:03 10° N 20:52:26 89° W 20:53:51 58° S
Cosmos 1726 Rocket 4.1 20:55:08 53° W 20:55:30 55° WNW 20:59:53 10° N
ATLAS 2AS CENTAUR R/B 2.8 20:48:15 10° NW 20:56:00 83° SW 20:57:41 57° SSE
USA 234 3.3 20:50:37 10° ENE 20:57:09 77° NNW 21:03:41 10° WSW
Cosmos 1603 3.8 20:53:24 14° SW 20:58:21 74° WNW 21:03:59 10° NNE
Cosmos 407 Rocket 4.4 21:04:45 37° NE 21:04:45 37° NE 21:07:56 10° NNE
APEX 4.3 20:58:15 10° NNW 21:05:19 83° WSW 21:06:05 70° S
CZ-2C R/B 4.3 21:02:05 10° N 21:06:36 31° WNW 21:11:04 10° WSW
Cosmos 1980 Rocket 4.3 21:03:17 10° NNW 21:06:51 17° NNE 21:09:09 14° NE
Aureole 1 Rocket 4.2 21:07:14 49° S 21:09:32 79° ESE 21:16:01 10° NNE
COSMOS 2455 2.8 21:04:48 10° NW 21:10:52 73° NE 21:11:09 71° ENE
Iridium 4 Rocket 3.9 21:08:37 10° N 21:11:53 46° N 21:11:53 46° N
Cosmos 1461 3.9 21:11:48 10° NW 21:15:09 50° NNW 21:15:09 50° NNW
Meteor 2-12 Rocket 4.4 21:13:43 10° N 21:19:45 70° ENE 21:19:45 70° ENE
Cosmos 2218 Rocket 3.8 21:14:57 10° N 21:21:09 88° W 21:21:25 83° S
Cosmos 614 Rocket 4.3 21:27:58 61° N 21:27:58 61° N 21:32:21 10° NNE
ERS-1 Rocket 3.9 21:28:47 40° W 21:28:50 40° W 21:33:35 10° NNW
ATLAS CENTAUR R/B 3.8 21:26:20 10° NNW 21:28:58 16° NNE 21:29:15 16° NNE
Cosmos 2181 Rocket 3.9 21:33:10 79° WSW 21:33:27 81° W 21:39:44 10° N
SPOT 5 4.0 21:35:18 34° WNW 21:35:18 34° WNW 21:38:35 10° NNW
In-Cosmos 22 Rocket 4.3 21:29:41 10° NNW 21:35:12 74° WNW 21:35:12 74° WNW
Cosmos 2369 Rocket 4.3 21:34:45 10° WNW 21:38:03 16° W 21:39:38 14° WSW
Cosmos 1656 4.3 21:43:50 10° NNW 21:48:47 49° NNE 21:48:47 49° NNE
CZ-4C R/B 3.7 21:57:24 10° NW 22:03:35 41° NNE 22:06:33 29° ENE
Cosmos 1763 Rocket 4.4 22:03:31 10° NNW 22:07:11 46° NNW 22:07:11 46° NNW
Mayak 0.9 22:05:12 10° N 22:06:54 23° N 22:06:54 23° N
Nadezhda 3 Rocket 4.4 22:13:04 58° NE 22:13:04 58° NE 22:18:11 10° NNE
Cosmos 2344 4.5 22:05:32 10° NW 22:14:13 61° NNE 22:20:03 32° E
Cosmos 1697 Rocket 3.5 22:21:40 10° NNW 22:26:03 47° N 22:26:03 47° N
Terra 4.0 22:28:29 18° WNW 22:28:29 18° WNW 22:30:55 10° NW
SL-16 R/B 4.3 22:23:36 10° NNW 22:27:42 20° NNE 22:29:37 17° ENE
USA 234 3.7 22:33:31 10° ENE 22:39:53 57° N 22:46:15 10° WNW
Cosmos 2322 Rocket 4.2 22:38:36 10° NNW 22:42:48 21° NNE 22:44:37 18° ENE
ATLAS 2AS CENTAUR R/B 4.3 22:40:17 10° WNW 22:45:07 23° W 22:45:07 23° W
Cosmos 1980 Rocket 3.2 22:46:44 10° NNW 22:50:55 43° N 22:50:55 43° N
COSMOS 2406 4.5 23:07:44 36° NE 23:07:44 36° NE 23:11:01 10° NNE
Cosmos 1605 Rocket 4.5 23:00:06 10° N 23:04:45 55° NNW 23:04:45 55° NNW
ATLAS CENTAUR R/B 4.3 23:05:01 10° NW 23:05:25 12° NNW 23:05:25 12° NNW
Cosmos 2082 Rocket 4.0 23:15:19 23° ENE 23:15:19 23° ENE 23:17:44 10° NE
SL-16 R/B 4.0 23:21:37 27° ENE 23:22:47 28° NE 23:27:58 10° N
ATLAS 5 CENTAUR R/B 3.6 23:39:11 28° NNE 23:39:11 28° NNE 23:42:04 10° NE
Cosmos 1833 Rocket 3.7 23:45:09 41° NNE 23:45:09 41° NNE 23:48:47 10° NNE
CZ-2D R/B 4.1 23:51:03 10° NE 23:54:16 21° ENE 23:54:16 21° ENE
